This is the latest recevied weather packets stored in our database for station/object 4S6DRJ-13. If no packets are shown the sender has not sent any weather packets the latest 10 day(s).
| Time | Temp. | Humidity | Pressure | Rain* | Wind** | Luminosity | Snow |
|---|---|---|---|---|---|---|---|
| 1787713597 | 28.89° C | 82% | 1011.4 hPa | 0 mm | 1.79 m/s, 176° | 470 W/m² | - |
| 1787713414 | 28.33° C | 82% | 1011.5 hPa | 0 mm | 1.79 m/s, 78° | 510 W/m² | - |
| 1787713353 | 28.33° C | 82% | 1011.3 hPa | 0 mm | 2.68 m/s, 229° | 477 W/m² | - |
| 1787713292 | 28.33° C | 82% | 1011.4 hPa | 0 mm | 1.79 m/s, 175° | 471 W/m² | - |
| 1787713231 | 28.33° C | 83% | 1011.3 hPa | 0 mm | 1.34 m/s, 219° | 450 W/m² | - |
| 1787713171 | 28.33° C | 82% | 1011.4 hPa | 0 mm | 1.34 m/s, 191° | 408 W/m² | - |
| 1787713109 | 28.33° C | 82% | 1011.1 hPa | 0 mm | 1.34 m/s, 221° | 248 W/m² | - |
| 1787713048 | 28.33° C | 82% | 1011.3 hPa | 0 mm | 2.68 m/s, 252° | 207 W/m² | - |
| 1787712987 | 28.33° C | 82% | 1011.2 hPa | 0 mm | 2.24 m/s, 233° | 208 W/m² | - |
| 1787712926 | 28.33° C | 82% | 1011.2 hPa | 0 mm | 1.34 m/s, 215° | 340 W/m² | - |
| 1787712865 | 28.33° C | 82% | 1011.2 hPa | 0 mm | 1.34 m/s, 234° | 249 W/m² | - |
| 1787712804 | 28.89° C | 82% | 1011.2 hPa | 0 mm | 1.79 m/s, 201° | 229 W/m² | - |
| 1787712743 | 28.89° C | 82% | 1011.2 hPa | 0 mm | 0.89 m/s, 253° | 215 W/m² | - |
| 1787712682 | 28.89° C | 82% | 1011.2 hPa | 0 mm | 1.79 m/s, 200° | 382 W/m² | - |
| 1787712621 | 28.89° C | 83% | 1011.1 hPa | 0 mm | 0.89 m/s, 316° | 324 W/m² | - |
| 1787712560 | 28.33° C | 82% | 1011 hPa | 0 mm | 0.89 m/s, 243° | 262 W/m² | - |
| 1787712499 | 28.33° C | 82% | 1011.1 hPa | 0 mm | 2.24 m/s, 245° | 265 W/m² | - |
| 1787712438 | 28.33° C | 82% | 1011 hPa | 0 mm | 0.89 m/s, 183° | 317 W/m² | - |
| 1787712377 | 28.33° C | 82% | 1011.1 hPa | 0 mm | 0.89 m/s, 232° | 356 W/m² | - |
| 1787712316 | 28.33° C | 82% | 1011.1 hPa | 0 mm | 1.34 m/s, 253° | 341 W/m² | - |
| 1787712255 | 28.33° C | 82% | 1011.1 hPa | 0 mm | 1.34 m/s, 193° | 217 W/m² | - |
| 1787712194 | 28.33° C | 82% | 1011 hPa | 0 mm | 1.34 m/s, 212° | 317 W/m² | - |
| 1787712134 | 28.33° C | 82% | 1011 hPa | 0 mm | 1.79 m/s, 263° | 384 W/m² | - |
| 1787712072 | 28.33° C | 82% | 1010.9 hPa | 0 mm | 0.89 m/s, 207° | 329 W/m² | - |
| 1787712011 | 28.33° C | 82% | 1011.2 hPa | 0 mm | 1.34 m/s, 221° | 300 W/m² | - |
* Rain latest hour (hover to see other rain measurements)
** Current wind speed in m/s (hover to see current wind gust speed)